Location: Unspecified
(0.0000°N, 0.0000°E)
Time: 17:41:07
(UTC+01:00)

CZ-4B DEB - Visible Passes

Search period start: 30 October 2014 00:00
Search period end: 09 November 2014 00:00
Orbit: 514 x 530 km, 97.5° (Epoch: 29 October)

Date Brightness Start Highest point End Pass type
(mag) Time Alt. Az. Time Alt. Az. Time Alt. Az.
30 Oct 6.4 20:35:12 10° SW 20:37:19 14° WSW 20:39:26 10° WNW visible
31 Oct 5.7 20:21:26 10° SSW 20:24:28 22° WSW 20:27:28 10° NW visible
01 Nov 4.9 20:08:02 10° SSW 20:11:33 35° WSW 20:15:03 10° NW visible
02 Nov 3.8 19:54:50 10° S 19:58:36 59° WSW 20:02:20 10° NNW visible
03 Nov 3.1 19:41:47 10° SSE 19:45:36 81° E 19:49:23 10° N visible
04 Nov 3.4 19:28:53 10° SSE 19:32:34 47° E 19:36:12 10° N visible
05 Nov 4.0 19:16:09 10° SE 19:19:28 29° E 19:22:46 10° NNE visible
06 Nov 4.6 19:03:41 10° ESE 19:06:20 18° E 19:08:59 10° NE visible
06 Nov 6.5 20:38:27 10° SW 20:40:13 13° WSW 20:41:59 10° WNW visible
07 Nov 5.9 20:24:11 10° SSW 20:27:03 20° WSW 20:29:54 10° NW visible
08 Nov 5.0 20:10:24 10° SSW 20:13:50 32° WSW 20:17:14 10° NW visible
